Regional Weather Roundup
Issued by NWS Nashville, TN

Home | Current Version | Previous Version | Text Only | Print | Product List | Glossary On
Versions: 1 2 3 4 5 6 7 8 9 10 11 12 13 14 15 16 17 18 19 20 21 22 23 24 25 26 27 28 29 30 31 32 33 34 35 36 37 38 39 40 41 42 43 44 45 46 47 48 49 50
000
ASUS44 KOHX 301315
RWROHX
MIDDLE TENNESSEE HOURLY WEATHER ROUNDUP
NATIONAL WEATHER SERVICE NASHVILLE TN
800 AM CDT MON MAR 30 2015

NOTE: "FAIR" INDICATES FEW OR NO CLOUDS BELOW 12,000 FEET WITH
NO SIGNIFICANT WEATHER AND/OR OBSTRUCTIONS TO VISIBILITY.

* THESE REPORTS ARE NOT UNDER NWS QUALITY CONTROL AND MAY NOT
  REPORT WEATHER SUCH AS PRECIPITATION AND FOG.


TNZ005>011-023>034-057-059-062>066-078-080-301400
...NORTHERN MIDDLE TENNESSEE...

CITY           SKY/WX    TMP DP  RH WIND       PRES   REMARKS
CLARKSVILLE    SUNNY     50  44  80 NW7       30.18R
CROSSVILLE     PTSUNNY   47  44  90 W7        30.14R
GALLATIN         N/A     47  47 100 NW5       30.16R
LIVINGSTON     MOSUNNY   48  46  93 W5        30.13R
NASHVILLE      MOSUNNY   52  46  80 NW7       30.18R
PORTLAND       SUNNY     46  43  87 NW7       30.15R
SMYRNA         SUNNY     47  47 100 VRB3      30.19R
SPARTA           N/A     45  45 100 CALM      30.14R
$$
TNZ056-058-060-061-075>077-079-093>097-301400
...SOUTHERN MIDDLE TENNESSEE...

CITY           SKY/WX    TMP DP  RH WIND       PRES   REMARKS
COLUMBIA       SUNNY    N/A N/A N/A CALM      30.16R
LEWISBURG      SUNNY     49  49 100 W3        30.16R
MCMINNVILLE    MOSUNNY   48  48 100 SW3       30.16R
MURFREESBORO   SUNNY     48  47  97 CALM      30.16R
SHELBYVILLE    CLOUDY    46  46 100 CALM      30.18R VSB 0
TULLAHOMA      SUNNY     48  48 100 NW5       30.17R
WINCHESTER     PTSUNNY   50  50 100 VRB5      30.17R
$$


...KEY TO REMARKS...
VSB - VISIBILITY IN MILES
WCI - WIND CHILL INDEX
HX  - HEAT INDEX




USA.gov is the U.S. government's official web portal to all federal, state and local government web resources and services.